Home   Weather   Saratov   Past weeks

Flag for Russia Past Weather in Saratov, Russia — Yesterday and Last 2 Weeks

Now
25 °F

Broken clouds.


Feels Like: 13 °F
Forecast: 12 / 20 °F
Wind: 13 mph from West

Location: Saratov / Tsentralny

Current Time: Jan 21, 2017 at 12:58:14 pm

Latest Report: Jan 21, 2017 at 12:00 pm


Visibility: N/A

Pressure: 29.83 "Hg

Humidity: 80%

Dew Point: 19 °F

Location of SaratovLocation

Past Weather in Saratov — Graph

°F

Saratov Temperature Yesterday

Maximum temperature yesterday: 23 °F (at 9:00 pm)
Minimum temperature yesterday: 14 °F (at 6:00 am)
Average temperature yesterday: 18 °F

High & Low Weather Summary for the Past Weeks

 TemperatureHumidityPressure
High34 °F (Jan 6, 11:00 am)100% (Jan 7, 6:00 am)30.48 "Hg (Jan 7, 6:00 am)
Low0 °F (Jan 16, 8:00 pm)62% (Jan 20, 3:30 am)29.83 "Hg (Jan 21, 7:00 am)
Average19 °F93%30.22 "Hg
* Reported Jan 6 11:00 am — Jan 21 11:30 am, Saratov, Weather by CustomWeather, © 2017

Note: Actual official high and low records may vary slightly from our data, if they occured in-between our weather recording intervals... More about our weather records

Advertising

Saratov Weather History for the Previous 24 Hours

Scroll right to see more
 ConditionsComfort  
Time TempWeatherWind HumidityBarometerVisibility
11:30 am
Sat, Jan 21
23 °FMore clouds than sun.13 mph86%29.83 "HgN/A
11:00 am23 °FOvercast.13 mph86%29.83 "HgN/A
10:30 am23 °FSunny.10 mph80%29.83 "Hg10 mi
10:00 am23 °FSunny.13 mph80%29.83 "Hg10 mi
9:30 am23 °FPartly sunny.13 mph86%29.83 "HgN/A
9:00 am23 °FPartly sunny.13 mph86%29.83 "HgN/A
8:30 am23 °FPassing clouds.13 mph86%29.83 "HgN/A
8:00 am23 °FPassing clouds.13 mph86%29.83 "HgN/A
7:30 am23 °FPassing clouds.13 mph80%29.83 "HgN/A
7:00 am23 °FPassing clouds.13 mph80%29.83 "HgN/A
6:30 am25 °FPassing clouds.13 mph80%29.86 "HgN/A
6:00 am25 °FPassing clouds.13 mph80%29.86 "HgN/A
5:30 am25 °FPassing clouds.15 mph86%29.86 "HgN/A
5:00 am25 °FOvercast.15 mph86%29.86 "HgN/A
4:30 am25 °FPassing clouds.13 mph86%29.86 "HgN/A
4:00 am25 °FPassing clouds.13 mph86%29.86 "HgN/A
3:30 am25 °FLight snow. Overcast.13 mph86%29.86 "HgN/A
3:00 am25 °FLight snow. Mostly cloudy.13 mph86%29.86 "HgN/A
2:30 am25 °FOvercast.15 mph86%29.86 "HgN/A
2:00 am25 °FOvercast.15 mph86%29.86 "HgN/A
1:30 am25 °FMostly cloudy.15 mph86%29.89 "HgN/A
1:00 am25 °FMostly cloudy.15 mph86%29.89 "HgN/A
12:30 am23 °FMostly cloudy.13 mph86%29.89 "HgN/A
12:00 am23 °FMostly cloudy.13 mph86%29.89 "HgN/A
11:30 pm
Fri, Jan 20
23 °FMostly cloudy.10 mph86%29.89 "HgN/A
11:00 pm23 °FMostly cloudy.10 mph86%29.89 "HgN/A
10:30 pm23 °FMostly cloudy.10 mph86%29.86 "HgN/A
10:00 pm23 °FMostly cloudy.10 mph86%29.86 "HgN/A
9:30 pm23 °FOvercast.13 mph80%29.86 "HgN/A
9:00 pm23 °FOvercast.13 mph80%29.86 "HgN/A
8:30 pm21 °FOvercast.13 mph86%29.89 "HgN/A
8:00 pm21 °FOvercast.15 mph86%29.89 "HgN/A
7:30 pm19 °FOvercast.17 mph86%29.89 "HgN/A
7:00 pm19 °FOvercast.15 mph86%29.89 "HgN/A
6:30 pm19 °FOvercast.15 mph86%29.86 "HgN/A
6:00 pm19 °FOvercast.15 mph86%29.86 "HgN/A
5:30 pm19 °FOvercast.15 mph86%29.89 "HgN/A
5:00 pm19 °FOvercast.15 mph86%29.89 "HgN/A
4:30 pm19 °FOvercast.13 mph79%29.86 "HgN/A
4:00 pm19 °FOvercast.10 mph79%29.86 "HgN/A
3:30 pm18 °FLight snow. Overcast.15 mph86%29.89 "HgN/A
3:00 pm18 °FLight snow. Overcast.15 mph86%29.89 "HgN/A
2:30 pm18 °FLight snow. Overcast.13 mph79%29.89 "HgN/A
1:30 pm18 °FLight snow. Overcast.13 mph79%29.89 "HgN/A
1:00 pm18 °FLight snow. Overcast.13 mph79%29.89 "HgN/A
12:30 pm18 °FLight snow. Overcast.13 mph79%29.95 "HgN/A
12:00 pm18 °FLight snow. Mostly cloudy.10 mph79%29.95 "HgN/A
Weather by CustomWeather, © 2017

See weather overviewHow to use our weather pages